Time,TemperatureF,DewpointF,PressureIn,WindDirection,WindDirectionDegrees,WindSpeedMPH,WindSpeedGustMPH,Humidity,HourlyPrecipIn,Conditions,Clouds,dailyrainin,SoftwareType,DateUTC
2013-09-04 00:02:00,56.6,50.0,29.22,West,270,1.2,1.2,78,0.00,,,0.00,Rainwise IP-100,2013-09-04 07:02:00,
2013-09-04 00:07:00,56.7,50.0,29.22,West,270,0.0,1.0,79,0.00,,,0.00,Rainwise IP-100,2013-09-04 07:07:00,
2013-09-04 00:12:00,56.8,50.0,29.22,West,270,0.0,0.0,79,0.00,,,0.00,Rainwise IP-100,2013-09-04 07:12:00,
2013-09-04 00:17:00,56.4,50.0,29.23,West,270,0.0,0.0,78,0.00,,,0.00,Rainwise IP-100,2013-09-04 07:17:00,
2013-09-04 00:22:00,55.9,49.0,29.23,West,270,0.0,0.0,78,0.00,,,0.00,Rainwise IP-100,2013-09-04 07:22:00,
2013-09-04 00:27:00,55.5,50.0,29.23,West,270,0.0,0.0,79,0.00,,,0.00,Rainwise IP-100,2013-09-04 07:27:00,
2013-09-04 00:32:00,55.4,49.0,29.23,West,270,0.0,0.0,80,0.00,,,0.00,Rainwise IP-100,2013-09-04 07:32:00,
2013-09-04 00:37:00,55.2,49.0,29.23,West,270,0.0,0.0,80,0.00,,,0.00,Rainwise IP-100,2013-09-04 07:37:00,
2013-09-04 00:42:00,54.9,49.0,29.22,West,270,0.0,1.0,80,0.00,,,0.00,Rainwise IP-100,2013-09-04 07:42:00,
2013-09-04 00:47:00,54.9,50.0,29.23,West,270,0.0,0.0,81,0.00,,,0.00,Rainwise IP-100,2013-09-04 07:47:00,
2013-09-04 00:52:00,55.0,50.0,29.23,West,270,0.0,1.0,83,0.00,,,0.00,Rainwise IP-100,2013-09-04 07:52:00,
2013-09-04 00:57:00,54.8,49.0,29.22,West,270,1.2,0.0,82,0.00,,,0.00,Rainwise IP-100,2013-09-04 07:57:00,
2013-09-04 01:02:00,54.4,49.0,29.22,West,270,0.0,2.0,81,0.00,,,0.00,Rainwise IP-100,2013-09-04 08:02:00,
2013-09-04 01:07:00,54.1,48.0,29.23,West,270,2.3,2.3,81,0.00,,,0.00,Rainwise IP-100,2013-09-04 08:07:00,
2013-09-04 01:12:00,54.1,48.0,29.23,West,270,0.0,2.0,82,0.00,,,0.00,Rainwise IP-100,2013-09-04 08:12:00,
2013-09-04 01:17:00,54.2,48.0,29.23,West,270,0.0,0.0,82,0.00,,,0.00,Rainwise IP-100,2013-09-04 08:17:00,
2013-09-04 01:22:00,54.1,49.0,29.23,West,270,0.0,0.0,83,0.00,,,0.00,Rainwise IP-100,2013-09-04 08:22:00,
2013-09-04 01:27:00,54.0,49.0,29.22,West,270,0.0,0.0,83,0.00,,,0.00,Rainwise IP-100,2013-09-04 08:27:00,
2013-09-04 01:32:00,53.8,48.0,29.23,West,270,0.0,0.0,83,0.00,,,0.00,Rainwise IP-100,2013-09-04 08:32:00,
2013-09-04 01:37:00,53.6,48.0,29.23,West,270,0.0,0.0,83,0.00,,,0.00,Rainwise IP-100,2013-09-04 08:37:00,
2013-09-04 01:42:00,53.2,47.0,29.22,West,270,0.0,0.0,82,0.00,,,0.00,Rainwise IP-100,2013-09-04 08:42:00,
2013-09-04 01:47:00,53.0,47.0,29.23,West,270,1.2,1.2,83,0.00,,,0.00,Rainwise IP-100,2013-09-04 08:47:00,
2013-09-04 01:52:00,53.0,47.0,29.23,West,270,0.0,1.0,83,0.00,,,0.00,Rainwise IP-100,2013-09-04 08:52:00,
2013-09-04 01:57:00,53.0,48.0,29.23,West,270,0.0,1.0,84,0.00,,,0.00,Rainwise IP-100,2013-09-04 08:57:00,
2013-09-04 02:02:00,53.1,48.0,29.23,West,270,0.0,1.0,84,0.00,,,0.00,Rainwise IP-100,2013-09-04 09:02:00,
2013-09-04 02:07:00,53.0,48.0,29.23,West,270,0.0,1.0,84,0.00,,,0.00,Rainwise IP-100,2013-09-04 09:07:00,
2013-09-04 02:12:00,52.8,48.0,29.23,West,270,0.0,1.0,84,0.00,,,0.00,Rainwise IP-100,2013-09-04 09:12:00,
2013-09-04 02:17:00,52.6,48.0,29.23,West,270,0.0,1.0,85,0.00,,,0.00,Rainwise IP-100,2013-09-04 09:17:00,
2013-09-04 02:22:00,52.5,48.0,29.23,West,270,0.0,0.0,85,0.00,,,0.00,Rainwise IP-100,2013-09-04 09:22:00,
2013-09-04 02:27:00,52.6,48.0,29.23,West,270,0.0,0.0,86,0.00,,,0.00,Rainwise IP-100,2013-09-04 09:27:00,
2013-09-04 02:32:00,52.6,48.0,29.23,West,270,0.0,0.0,86,0.00,,,0.00,Rainwise IP-100,2013-09-04 09:32:00,
2013-09-04 02:37:00,52.5,48.0,29.23,West,270,0.0,0.0,86,0.00,,,0.00,Rainwise IP-100,2013-09-04 09:37:00,
2013-09-04 02:42:00,52.2,48.0,29.23,West,270,0.0,0.0,86,0.00,,,0.00,Rainwise IP-100,2013-09-04 09:42:00,
2013-09-04 02:47:00,51.9,48.0,29.23,West,270,0.0,0.0,86,0.00,,,0.00,Rainwise IP-100,2013-09-04 09:47:00,
2013-09-04 02:52:00,51.7,48.0,29.23,West,270,0.0,0.0,87,0.00,,,0.00,Rainwise IP-100,2013-09-04 09:52:00,
2013-09-04 02:57:00,51.5,48.0,29.23,West,270,1.4,2.0,87,0.00,,,0.00,Rainwise IP-100,2013-09-04 09:57:00,
2013-09-04 03:02:00,51.2,47.0,29.23,West,270,0.0,1.0,87,0.00,,,0.00,Rainwise IP-100,2013-09-04 10:02:00,
2013-09-04 03:07:00,51.3,47.0,29.23,West,270,0.0,0.0,88,0.00,,,0.00,Rainwise IP-100,2013-09-04 10:07:00,
2013-09-04 03:12:00,51.4,47.0,29.23,West,270,0.0,0.0,88,0.00,,,0.00,Rainwise IP-100,2013-09-04 10:12:00,
2013-09-04 03:17:00,51.2,47.0,29.23,West,270,0.0,0.0,88,0.00,,,0.00,Rainwise IP-100,2013-09-04 10:17:00,
2013-09-04 03:22:00,50.8,47.0,29.23,West,270,0.0,1.0,88,0.00,,,0.00,Rainwise IP-100,2013-09-04 10:22:00,
2013-09-04 03:27:00,50.7,47.0,29.24,West,270,0.0,0.0,88,0.00,,,0.00,Rainwise IP-100,2013-09-04 10:27:00,
2013-09-04 03:32:00,50.6,47.0,29.23,West,270,0.0,0.0,89,0.00,,,0.00,Rainwise IP-100,2013-09-04 10:32:00,
2013-09-04 03:37:00,50.3,47.0,29.24,West,270,0.0,1.0,89,0.00,,,0.00,Rainwise IP-100,2013-09-04 10:37:00,
2013-09-04 03:42:00,50.1,47.0,29.23,West,270,0.0,1.0,89,0.00,,,0.00,Rainwise IP-100,2013-09-04 10:42:00,
2013-09-04 03:47:00,50.1,47.0,29.23,West,270,0.0,0.0,89,0.00,,,0.00,Rainwise IP-100,2013-09-04 10:47:00,
2013-09-04 03:52:00,50.3,47.0,29.23,West,270,1.6,1.6,90,0.00,,,0.00,Rainwise IP-100,2013-09-04 10:52:00,
2013-09-04 03:57:00,50.3,47.0,29.24,West,270,0.0,1.0,90,0.00,,,0.00,Rainwise IP-100,2013-09-04 10:57:00,
2013-09-04 04:02:00,50.1,47.0,29.24,West,270,0.0,1.0,90,0.00,,,0.00,Rainwise IP-100,2013-09-04 11:02:00,
2013-09-04 04:07:00,50.0,47.0,29.24,West,270,0.0,1.0,90,0.00,,,0.00,Rainwise IP-100,2013-09-04 11:07:00,
2013-09-04 04:12:00,49.9,47.0,29.24,West,270,1.6,1.6,90,0.00,,,0.00,Rainwise IP-100,2013-09-04 11:12:00,
2013-09-04 04:17:00,49.8,47.0,29.24,West,270,0.0,1.0,90,0.00,,,0.00,Rainwise IP-100,2013-09-04 11:17:00,
2013-09-04 04:22:00,49.9,47.0,29.24,West,270,0.0,0.0,91,0.00,,,0.00,Rainwise IP-100,2013-09-04 11:22:00,
2013-09-04 04:27:00,49.9,47.0,29.24,West,270,0.0,0.0,91,0.00,,,0.00,Rainwise IP-100,2013-09-04 11:27:00,
2013-09-04 04:32:00,49.8,47.0,29.23,West,270,0.0,0.0,91,0.00,,,0.00,Rainwise IP-100,2013-09-04 11:32:00,
2013-09-04 04:37:00,49.6,47.0,29.24,West,270,1.2,2.0,91,0.00,,,0.00,Rainwise IP-100,2013-09-04 11:37:00,
2013-09-04 04:42:00,49.3,47.0,29.24,West,270,0.0,1.0,90,0.00,,,0.00,Rainwise IP-100,2013-09-04 11:42:00,
2013-09-04 04:47:00,49.1,47.0,29.23,West,270,0.0,0.0,90,0.00,,,0.00,Rainwise IP-100,2013-09-04 11:47:00,
2013-09-04 04:52:00,49.0,47.0,29.24,West,270,0.0,1.0,91,0.00,,,0.00,Rainwise IP-100,2013-09-04 11:52:00,
2013-09-04 04:57:00,49.0,47.0,29.24,West,270,0.0,0.0,92,0.00,,,0.00,Rainwise IP-100,2013-09-04 11:57:00,
2013-09-04 05:02:00,48.9,47.0,29.24,West,270,1.9,1.9,91,0.00,,,0.00,Rainwise IP-100,2013-09-04 12:02:00,
2013-09-04 05:07:00,48.9,47.0,29.24,West,270,0.0,1.0,91,0.00,,,0.00,Rainwise IP-100,2013-09-04 12:07:00,
2013-09-04 05:12:00,48.9,47.0,29.24,West,270,0.0,0.0,91,0.00,,,0.00,Rainwise IP-100,2013-09-04 12:12:00,
2013-09-04 05:17:00,48.8,47.0,29.25,West,270,0.0,0.0,92,0.00,,,0.00,Rainwise IP-100,2013-09-04 12:17:00,
2013-09-04 05:22:00,48.5,47.0,29.24,West,270,0.0,0.0,91,0.00,,,0.00,Rainwise IP-100,2013-09-04 12:22:00,
2013-09-04 05:27:00,48.2,46.0,29.24,West,270,0.0,1.0,92,0.00,,,0.00,Rainwise IP-100,2013-09-04 12:27:00,
2013-09-04 05:32:00,48.2,46.0,29.24,West,270,0.0,2.0,92,0.00,,,0.00,Rainwise IP-100,2013-09-04 12:32:00,
2013-09-04 05:37:00,48.1,46.0,29.24,West,270,1.2,1.2,92,0.00,,,0.00,Rainwise IP-100,2013-09-04 12:37:00,
2013-09-04 05:42:00,48.1,46.0,29.24,West,270,0.0,2.0,92,0.00,,,0.00,Rainwise IP-100,2013-09-04 12:42:00,
2013-09-04 05:47:00,48.1,46.0,29.24,West,270,0.0,1.0,92,0.00,,,0.00,Rainwise IP-100,2013-09-04 12:47:00,
2013-09-04 05:52:00,48.2,46.0,29.24,West,270,0.0,1.0,92,0.00,,,0.00,Rainwise IP-100,2013-09-04 12:52:00,
2013-09-04 05:57:00,48.2,47.0,29.25,West,270,0.0,0.0,93,0.00,,,0.00,Rainwise IP-100,2013-09-04 12:57:00,
2013-09-04 06:02:00,48.0,47.0,29.25,West,270,0.0,0.0,93,0.00,,,0.00,Rainwise IP-100,2013-09-04 13:02:00,
2013-09-04 06:07:00,47.9,47.0,29.25,West,270,0.0,1.0,93,0.00,,,0.00,Rainwise IP-100,2013-09-04 13:07:00,
2013-09-04 06:12:00,47.9,47.0,29.25,West,270,0.0,1.0,93,0.00,,,0.00,Rainwise IP-100,2013-09-04 13:12:00,
2013-09-04 06:17:00,48.0,47.0,29.25,West,270,1.4,1.4,93,0.00,,,0.00,Rainwise IP-100,2013-09-04 13:17:00,
2013-09-04 06:22:00,47.9,47.0,29.25,West,270,0.0,1.0,94,0.00,,,0.00,Rainwise IP-100,2013-09-04 13:22:00,
2013-09-04 06:27:00,47.8,46.0,29.25,West,270,0.0,0.0,94,0.00,,,0.00,Rainwise IP-100,2013-09-04 13:27:00,
2013-09-04 06:32:00,47.7,46.0,29.26,West,270,0.0,0.0,94,0.00,,,0.00,Rainwise IP-100,2013-09-04 13:32:00,
2013-09-04 06:37:00,47.6,46.0,29.26,West,270,0.0,0.0,94,0.00,,,0.00,Rainwise IP-100,2013-09-04 13:37:00,
2013-09-04 06:42:00,47.4,46.0,29.26,West,270,0.0,0.0,94,0.00,,,0.00,Rainwise IP-100,2013-09-04 13:42:00,
2013-09-04 06:47:00,47.3,45.0,29.26,West,270,0.0,1.0,94,0.00,,,0.00,Rainwise IP-100,2013-09-04 13:47:00,
2013-09-04 06:52:00,47.3,45.0,29.26,West,270,0.0,0.0,95,0.00,,,0.00,Rainwise IP-100,2013-09-04 13:52:00,
2013-09-04 06:57:00,47.3,45.0,29.26,East,90,0.0,0.0,95,0.00,,,0.00,Rainwise IP-100,2013-09-04 13:57:00,
2013-09-04 07:02:00,47.3,45.0,29.27,East,90,0.0,0.0,95,0.00,,,0.00,Rainwise IP-100,2013-09-04 14:02:00,
2013-09-04 07:07:00,47.2,46.0,29.27,East,90,0.0,0.0,96,0.00,,,0.00,Rainwise IP-100,2013-09-04 14:07:00,
2013-09-04 07:12:00,47.5,47.0,29.26,East,90,0.0,0.0,96,0.00,,,0.00,Rainwise IP-100,2013-09-04 14:12:00,
2013-09-04 07:17:00,47.8,47.0,29.27,East,90,0.0,0.0,96,0.00,,,0.00,Rainwise IP-100,2013-09-04 14:17:00,
2013-09-04 07:22:00,47.9,47.0,29.27,East,90,0.0,0.0,96,0.00,,,0.00,Rainwise IP-100,2013-09-04 14:22:00,
2013-09-04 07:27:00,48.3,47.0,29.27,East,90,0.0,0.0,96,0.00,,,0.00,Rainwise IP-100,2013-09-04 14:27:00,
2013-09-04 07:32:00,49.0,48.0,29.27,East,90,0.0,0.0,96,0.00,,,0.00,Rainwise IP-100,2013-09-04 14:32:00,
2013-09-04 07:37:00,49.9,49.0,29.27,East,90,0.0,0.0,96,0.00,,,0.00,Rainwise IP-100,2013-09-04 14:37:00,
2013-09-04 07:42:00,51.0,50.0,29.28,East,90,0.0,0.0,96,0.00,,,0.00,Rainwise IP-100,2013-09-04 14:42:00,
2013-09-04 07:47:00,52.0,50.0,29.28,East,90,0.0,0.0,96,0.00,,,0.00,Rainwise IP-100,2013-09-04 14:47:00,
2013-09-04 07:52:00,53.1,51.0,29.28,East,90,2.1,2.1,95,0.00,,,0.00,Rainwise IP-100,2013-09-04 14:52:00,
2013-09-04 07:57:00,54.2,52.0,29.28,ESE,112,0.0,3.0,92,0.00,,,0.00,Rainwise IP-100,2013-09-04 14:57:00,
2013-09-04 08:02:00,55.3,52.0,29.28,ESE,112,1.9,2.0,89,0.00,,,0.00,Rainwise IP-100,2013-09-04 15:02:00,
2013-09-04 08:07:00,56.0,52.0,29.28,ESE,112,0.0,1.0,87,0.00,,,0.00,Rainwise IP-100,2013-09-04 15:07:00,
2013-09-04 08:12:00,56.4,52.0,29.28,ESE,112,1.2,2.0,84,0.00,,,0.00,Rainwise IP-100,2013-09-04 15:12:00,
2013-09-04 08:17:00,57.1,52.0,29.28,ESE,112,1.4,1.4,82,0.00,,,0.00,Rainwise IP-100,2013-09-04 15:17:00,
2013-09-04 08:22:00,58.1,52.0,29.28,ESE,112,1.4,2.0,80,0.00,,,0.00,Rainwise IP-100,2013-09-04 15:22:00,
2013-09-04 08:27:00,59.0,52.0,29.28,ESE,112,0.0,2.0,78,0.00,,,0.00,Rainwise IP-100,2013-09-04 15:27:00,
2013-09-04 08:32:00,60.1,53.0,29.28,ESE,112,1.2,2.0,76,0.00,,,0.00,Rainwise IP-100,2013-09-04 15:32:00,
2013-09-04 08:37:00,60.7,52.0,29.28,ESE,112,1.2,2.0,73,0.00,,,0.00,Rainwise IP-100,2013-09-04 15:37:00,
2013-09-04 08:42:00,61.0,52.0,29.28,ESE,112,0.0,2.0,72,0.00,,,0.00,Rainwise IP-100,2013-09-04 15:42:00,
2013-09-04 08:47:00,62.3,53.0,29.28,ESE,112,1.2,2.0,71,0.00,,,0.00,Rainwise IP-100,2013-09-04 15:47:00,
2013-09-04 08:52:00,63.7,53.0,29.28,ESE,112,1.4,3.0,69,0.00,,,0.00,Rainwise IP-100,2013-09-04 15:52:00,
2013-09-04 08:57:00,64.6,53.0,29.28,SE,135,0.0,3.0,67,0.00,,,0.00,Rainwise IP-100,2013-09-04 15:57:00,
2013-09-04 09:02:00,65.6,53.0,29.28,SE,135,0.0,3.0,65,0.00,,,0.00,Rainwise IP-100,2013-09-04 16:02:00,
2013-09-04 09:07:00,66.4,53.0,29.28,SE,135,3.3,3.3,63,0.00,,,0.00,Rainwise IP-100,2013-09-04 16:07:00,
2013-09-04 09:12:00,66.6,53.0,29.28,SSE,157,0.0,3.0,62,0.00,,,0.00,Rainwise IP-100,2013-09-04 16:12:00,
2013-09-04 09:17:00,66.4,53.0,29.28,ESE,112,0.0,3.0,62,0.00,,,0.00,Rainwise IP-100,2013-09-04 16:17:00,
2013-09-04 09:22:00,66.9,53.0,29.28,East,90,3.7,4.0,61,0.00,,,0.00,Rainwise IP-100,2013-09-04 16:22:00,
2013-09-04 09:27:00,67.0,53.0,29.28,ESE,112,4.2,5.0,60,0.00,,,0.00,Rainwise IP-100,2013-09-04 16:27:00,
2013-09-04 09:32:00,66.6,52.0,29.27,ENE,67,4.4,5.0,59,0.00,,,0.00,Rainwise IP-100,2013-09-04 16:32:00,
2013-09-04 09:37:00,67.0,53.0,29.27,SSW,202,2.3,5.0,59,0.00,,,0.00,Rainwise IP-100,2013-09-04 16:37:00,
2013-09-04 09:42:00,68.2,53.0,29.27,SSE,157,3.5,5.0,58,0.00,,,0.00,Rainwise IP-100,2013-09-04 16:42:00,
2013-09-04 09:47:00,69.2,53.0,29.28,East,90,2.1,4.0,57,0.00,,,0.00,Rainwise IP-100,2013-09-04 16:47:00,
2013-09-04 09:52:00,69.7,53.0,29.27,SSE,157,0.0,3.0,56,0.00,,,0.00,Rainwise IP-100,2013-09-04 16:52:00,
2013-09-04 09:57:00,70.5,53.0,29.28,ENE,67,1.6,4.0,55,0.00,,,0.00,Rainwise IP-100,2013-09-04 16:57:00,
2013-09-04 10:02:00,70.9,53.0,29.28,ENE,67,2.3,3.0,54,0.00,,,0.00,Rainwise IP-100,2013-09-04 17:02:00,
2013-09-04 10:07:00,71.5,54.0,29.27,SSE,157,1.9,4.0,54,0.00,,,0.00,Rainwise IP-100,2013-09-04 17:07:00,
2013-09-04 10:12:00,72.4,54.0,29.28,SSE,157,2.3,4.0,53,0.00,,,0.00,Rainwise IP-100,2013-09-04 17:12:00,
2013-09-04 10:17:00,72.8,54.0,29.27,SSE,157,2.6,5.0,52,0.00,,,0.00,Rainwise IP-100,2013-09-04 17:17:00,
2013-09-04 10:22:00,72.8,53.0,29.27,ESE,112,0.0,4.0,51,0.00,,,0.00,Rainwise IP-100,2013-09-04 17:22:00,
2013-09-04 10:27:00,73.2,54.0,29.27,NNE,22,2.3,5.0,51,0.00,,,0.00,Rainwise IP-100,2013-09-04 17:27:00,
2013-09-04 10:32:00,74.3,54.0,29.27,SSE,157,2.6,4.0,50,0.00,,,0.00,Rainwise IP-100,2013-09-04 17:32:00,
2013-09-04 10:37:00,74.7,54.0,29.27,East,90,2.8,5.0,49,0.00,,,0.00,Rainwise IP-100,2013-09-04 17:37:00,
2013-09-04 10:42:00,74.6,54.0,29.27,ESE,112,2.6,4.0,48,0.00,,,0.00,Rainwise IP-100,2013-09-04 17:42:00,
2013-09-04 10:47:00,75.0,54.0,29.27,SSE,157,1.2,4.0,48,0.00,,,0.00,Rainwise IP-100,2013-09-04 17:47:00,
2013-09-04 10:52:00,76.0,54.0,29.27,SSE,157,0.0,5.0,47,0.00,,,0.00,Rainwise IP-100,2013-09-04 17:52:00,
2013-09-04 10:57:00,76.9,54.0,29.27,ESE,112,3.7,4.0,46,0.00,,,0.00,Rainwise IP-100,2013-09-04 17:57:00,
2013-09-04 11:02:00,77.4,54.0,29.27,ENE,67,0.0,6.0,45,0.00,,,0.00,Rainwise IP-100,2013-09-04 18:02:00,
2013-09-04 11:07:00,77.3,54.0,29.27,NNE,22,0.0,6.0,44,0.00,,,0.00,Rainwise IP-100,2013-09-04 18:07:00,
2013-09-04 11:12:00,77.8,53.0,29.27,SSE,157,1.6,7.0,43,0.00,,,0.00,Rainwise IP-100,2013-09-04 18:12:00,
2013-09-04 11:17:00,78.9,54.0,29.27,SSE,157,2.8,7.0,42,0.00,,,0.00,Rainwise IP-100,2013-09-04 18:17:00,
2013-09-04 11:22:00,78.9,54.0,29.26,SSE,157,1.9,6.0,42,0.00,,,0.00,Rainwise IP-100,2013-09-04 18:22:00,
2013-09-04 11:27:00,78.5,53.0,29.26,ESE,112,2.3,6.0,41,0.00,,,0.00,Rainwise IP-100,2013-09-04 18:27:00,
2013-09-04 11:32:00,78.8,53.0,29.26,SSW,202,3.0,4.0,40,0.00,,,0.00,Rainwise IP-100,2013-09-04 18:32:00,
2013-09-04 11:37:00,79.1,53.0,29.26,ESE,112,1.9,4.0,40,0.00,,,0.00,Rainwise IP-100,2013-09-04 18:37:00,
2013-09-04 11:42:00,79.5,53.0,29.26,East,90,1.6,3.0,39,0.00,,,0.00,Rainwise IP-100,2013-09-04 18:42:00,
2013-09-04 11:47:00,79.8,53.0,29.26,SSE,157,4.7,8.0,39,0.00,,,0.00,Rainwise IP-100,2013-09-04 18:47:00,
2013-09-04 11:52:00,80.0,52.0,29.26,SSE,157,4.4,8.0,38,0.00,,,0.00,Rainwise IP-100,2013-09-04 18:52:00,
2013-09-04 11:57:00,80.6,53.0,29.26,WSW,247,1.9,7.0,38,0.00,,,0.00,Rainwise IP-100,2013-09-04 18:57:00,
2013-09-04 12:02:00,81.5,53.0,29.26,SSE,157,2.3,6.0,37,0.00,,,0.00,Rainwise IP-100,2013-09-04 19:02:00,
2013-09-04 12:07:00,81.7,52.0,29.25,NNE,22,2.6,5.0,36,0.00,,,0.00,Rainwise IP-100,2013-09-04 19:07:00,
2013-09-04 12:12:00,81.0,50.0,29.25,ESE,112,0.0,6.0,34,0.00,,,0.00,Rainwise IP-100,2013-09-04 19:12:00,
2013-09-04 12:17:00,82.1,50.0,29.25,North,360,0.0,4.0,34,0.00,,,0.00,Rainwise IP-100,2013-09-04 19:17:00,
2013-09-04 12:22:00,83.5,51.0,29.25,ESE,112,2.3,6.0,33,0.00,,,0.00,Rainwise IP-100,2013-09-04 19:22:00,
2013-09-04 12:27:00,82.8,50.0,29.25,ESE,112,0.0,8.0,32,0.00,,,0.00,Rainwise IP-100,2013-09-04 19:27:00,
2013-09-04 12:32:00,82.4,50.0,29.25,SSE,157,4.4,6.0,33,0.00,,,0.00,Rainwise IP-100,2013-09-04 19:32:00,
2013-09-04 12:37:00,82.7,51.0,29.24,WSW,247,4.4,7.0,34,0.00,,,0.00,Rainwise IP-100,2013-09-04 19:37:00,
2013-09-04 12:42:00,83.3,53.0,29.24,ENE,67,1.4,5.0,35,0.00,,,0.00,Rainwise IP-100,2013-09-04 19:42:00,
2013-09-04 12:47:00,83.8,53.0,29.24,SSE,157,6.1,7.0,34,0.00,,,0.00,Rainwise IP-100,2013-09-04 19:47:00,
2013-09-04 12:52:00,83.2,52.0,29.24,SW,225,6.5,7.0,34,0.00,,,0.00,Rainwise IP-100,2013-09-04 19:52:00,
2013-09-04 12:57:00,83.4,52.0,29.24,SSW,202,8.6,8.6,34,0.00,,,0.00,Rainwise IP-100,2013-09-04 19:57:00,
2013-09-04 13:02:00,84.0,53.0,29.24,SW,225,1.9,9.0,35,0.00,,,0.00,Rainwise IP-100,2013-09-04 20:02:00,
2013-09-04 13:07:00,84.1,53.0,29.24,ESE,112,2.3,8.0,34,0.00,,,0.00,Rainwise IP-100,2013-09-04 20:07:00,
2013-09-04 13:12:00,84.0,52.0,29.24,SSE,157,8.9,8.9,33,0.00,,,0.00,Rainwise IP-100,2013-09-04 20:12:00,
2013-09-04 13:17:00,83.8,50.0,29.24,SSW,202,2.8,11.0,32,0.00,,,0.00,Rainwise IP-100,2013-09-04 20:17:00,
2013-09-04 13:22:00,84.1,51.0,29.23,SW,225,3.3,9.0,32,0.00,,,0.00,Rainwise IP-100,2013-09-04 20:22:00,
2013-09-04 13:27:00,84.6,50.0,29.23,SSE,157,4.4,11.0,31,0.00,,,0.00,Rainwise IP-100,2013-09-04 20:27:00,
2013-09-04 13:32:00,84.7,50.0,29.24,SSW,202,3.5,13.0,30,0.00,,,0.00,Rainwise IP-100,2013-09-04 20:32:00,
2013-09-04 13:37:00,84.8,50.0,29.23,SSE,157,7.5,8.0,30,0.00,,,0.00,Rainwise IP-100,2013-09-04 20:37:00,
2013-09-04 13:42:00,85.0,50.0,29.23,ESE,112,2.8,10.0,30,0.00,,,0.00,Rainwise IP-100,2013-09-04 20:42:00,
2013-09-04 13:47:00,84.6,50.0,29.23,SSW,202,1.2,7.0,30,0.00,,,0.00,Rainwise IP-100,2013-09-04 20:47:00,
2013-09-04 13:52:00,84.8,50.0,29.23,ESE,112,7.7,11.0,30,0.00,,,0.00,Rainwise IP-100,2013-09-04 20:52:00,
2013-09-04 13:57:00,84.7,50.0,29.23,SSE,157,0.0,11.0,30,0.00,,,0.00,Rainwise IP-100,2013-09-04 20:57:00,
2013-09-04 14:02:00,84.7,50.0,29.23,SSE,157,2.6,9.0,30,0.00,,,0.00,Rainwise IP-100,2013-09-04 21:02:00,
2013-09-04 14:07:00,85.1,50.0,29.23,SSE,157,6.8,8.0,30,0.00,,,0.00,Rainwise IP-100,2013-09-04 21:07:00,
2013-09-04 14:12:00,85.3,50.0,29.23,ESE,112,2.1,9.0,30,0.00,,,0.00,Rainwise IP-100,2013-09-04 21:12:00,
2013-09-04 14:17:00,85.7,51.0,29.23,SSW,202,1.6,7.0,31,0.00,,,0.00,Rainwise IP-100,2013-09-04 21:17:00,
2013-09-04 14:22:00,86.1,52.0,29.22,SSE,157,1.6,9.0,31,0.00,,,0.00,Rainwise IP-100,2013-09-04 21:22:00,
2013-09-04 14:27:00,86.5,51.0,29.22,SSW,202,6.1,10.0,30,0.00,,,0.00,Rainwise IP-100,2013-09-04 21:27:00,
2013-09-04 14:32:00,86.2,51.0,29.22,SSW,202,3.7,11.0,30,0.00,,,0.00,Rainwise IP-100,2013-09-04 21:32:00,
2013-09-04 14:37:00,86.2,51.0,29.22,SSW,202,4.7,11.0,30,0.00,,,0.00,Rainwise IP-100,2013-09-04 21:37:00,
2013-09-04 14:42:00,86.4,51.0,29.21,SSE,157,2.6,9.0,30,0.00,,,0.00,Rainwise IP-100,2013-09-04 21:42:00,
2013-09-04 14:47:00,86.6,50.0,29.21,SSE,157,8.6,9.0,29,0.00,,,0.00,Rainwise IP-100,2013-09-04 21:47:00,
2013-09-04 14:52:00,86.5,50.0,29.21,SSE,157,8.6,11.0,29,0.00,,,0.00,Rainwise IP-100,2013-09-04 21:52:00,
2013-09-04 14:57:00,86.4,50.0,29.20,SW,225,6.8,10.0,29,0.00,,,0.00,Rainwise IP-100,2013-09-04 21:57:00,
2013-09-04 15:02:00,87.1,50.0,29.21,SSW,202,7.0,12.0,28,0.00,,,0.00,Rainwise IP-100,2013-09-04 22:02:00,
2013-09-04 15:07:00,87.6,50.0,29.21,WSW,247,3.5,11.0,27,0.00,,,0.00,Rainwise IP-100,2013-09-04 22:07:00,
2013-09-04 15:12:00,88.0,49.0,29.20,East,90,2.6,11.0,26,0.00,,,0.00,Rainwise IP-100,2013-09-04 22:12:00,
2013-09-04 15:17:00,88.2,49.0,29.20,SW,225,2.6,11.0,26,0.00,,,0.00,Rainwise IP-100,2013-09-04 22:17:00,
2013-09-04 15:22:00,88.3,49.0,29.20,SW,225,6.5,11.0,26,0.00,,,0.00,Rainwise IP-100,2013-09-04 22:22:00,
2013-09-04 15:27:00,88.3,49.0,29.19,SW,225,4.4,11.0,26,0.00,,,0.00,Rainwise IP-100,2013-09-04 22:27:00,
2013-09-04 15:32:00,88.2,49.0,29.19,SSW,202,6.3,11.0,26,0.00,,,0.00,Rainwise IP-100,2013-09-04 22:32:00,
2013-09-04 15:37:00,88.3,49.0,29.19,SSW,202,3.0,10.0,26,0.00,,,0.00,Rainwise IP-100,2013-09-04 22:37:00,
2013-09-04 15:42:00,88.2,49.0,29.19,WSW,247,2.8,8.0,26,0.00,,,0.00,Rainwise IP-100,2013-09-04 22:42:00,
2013-09-04 15:47:00,88.6,49.0,29.18,SSW,202,5.6,12.0,26,0.00,,,0.00,Rainwise IP-100,2013-09-04 22:47:00,
2013-09-04 15:52:00,88.5,49.0,29.19,West,270,7.0,11.0,26,0.00,,,0.00,Rainwise IP-100,2013-09-04 22:52:00,
2013-09-04 15:57:00,88.5,49.0,29.18,WSW,247,9.1,9.1,26,0.00,,,0.00,Rainwise IP-100,2013-09-04 22:57:00,
2013-09-04 16:02:00,88.7,50.0,29.18,SSW,202,3.7,11.0,26,0.00,,,0.00,Rainwise IP-100,2013-09-04 23:02:00,
2013-09-04 16:07:00,88.7,50.0,29.18,SSW,202,6.5,10.0,26,0.00,,,0.00,Rainwise IP-100,2013-09-04 23:07:00,
2013-09-04 16:12:00,88.6,49.0,29.18,West,270,2.3,10.0,26,0.00,,,0.00,Rainwise IP-100,2013-09-04 23:12:00,
2013-09-04 16:17:00,88.8,50.0,29.18,SSW,202,2.3,10.0,26,0.00,,,0.00,Rainwise IP-100,2013-09-04 23:17:00,
2013-09-04 16:22:00,89.2,50.0,29.18,SW,225,3.0,11.0,26,0.00,,,0.00,Rainwise IP-100,2013-09-04 23:22:00,
2013-09-04 16:27:00,89.1,50.0,29.18,WSW,247,3.5,11.0,26,0.00,,,0.00,Rainwise IP-100,2013-09-04 23:27:00,
2013-09-04 16:32:00,88.7,50.0,29.17,SSW,202,5.1,12.0,27,0.00,,,0.00,Rainwise IP-100,2013-09-04 23:32:00,
2013-09-04 16:37:00,88.7,50.0,29.17,SSW,202,4.7,9.0,27,0.00,,,0.00,Rainwise IP-100,2013-09-04 23:37:00,
2013-09-04 16:42:00,88.7,51.0,29.18,SSW,202,9.1,10.0,28,0.00,,,0.00,Rainwise IP-100,2013-09-04 23:42:00,
2013-09-04 16:47:00,88.4,51.0,29.17,SSW,202,7.9,12.0,28,0.00,,,0.00,Rainwise IP-100,2013-09-04 23:47:00,
2013-09-04 16:52:00,87.9,52.0,29.17,SW,225,10.0,11.0,29,0.00,,,0.00,Rainwise IP-100,2013-09-04 23:52:00,
2013-09-04 16:57:00,87.6,53.0,29.17,WSW,247,6.5,12.0,30,0.00,,,0.00,Rainwise IP-100,2013-09-04 23:57:00,
2013-09-04 17:02:00,87.2,52.0,29.17,WSW,247,4.4,10.0,30,0.00,,,0.00,Rainwise IP-100,2013-09-05 00:02:00,
2013-09-04 17:07:00,87.2,52.0,29.17,SSW,202,6.1,11.0,30,0.00,,,0.00,Rainwise IP-100,2013-09-05 00:07:00,
2013-09-04 17:12:00,87.0,53.0,29.17,WSW,247,10.3,11.0,31,0.00,,,0.00,Rainwise IP-100,2013-09-05 00:12:00,
2013-09-04 17:17:00,86.6,52.0,29.17,SW,225,5.8,13.0,31,0.00,,,0.00,Rainwise IP-100,2013-09-05 00:17:00,
2013-09-04 17:22:00,86.1,53.0,29.17,SSW,202,5.1,10.0,32,0.00,,,0.00,Rainwise IP-100,2013-09-05 00:22:00,
2013-09-04 17:27:00,85.8,53.0,29.17,SSW,202,8.9,13.0,32,0.00,,,0.00,Rainwise IP-100,2013-09-05 00:27:00,
2013-09-04 17:32:00,86.1,53.0,29.17,SSW,202,2.8,11.0,32,0.00,,,0.00,Rainwise IP-100,2013-09-05 00:32:00,
2013-09-04 17:37:00,86.0,53.0,29.17,SSW,202,5.1,10.0,32,0.00,,,0.00,Rainwise IP-100,2013-09-05 00:37:00,
2013-09-04 17:42:00,85.7,53.0,29.17,SSW,202,3.7,10.0,32,0.00,,,0.00,Rainwise IP-100,2013-09-05 00:42:00,
2013-09-04 17:47:00,85.7,53.0,29.16,SSW,202,4.9,8.0,32,0.00,,,0.00,Rainwise IP-100,2013-09-05 00:47:00,
2013-09-04 17:52:00,85.5,52.0,29.16,SSW,202,2.6,11.0,32,0.00,,,0.00,Rainwise IP-100,2013-09-05 00:52:00,
2013-09-04 17:57:00,85.1,53.0,29.16,SSW,202,3.3,9.0,33,0.00,,,0.00,Rainwise IP-100,2013-09-05 00:57:00,
2013-09-04 18:02:00,85.1,53.0,29.16,SSW,202,4.9,11.0,33,0.00,,,0.00,Rainwise IP-100,2013-09-05 01:02:00,
2013-09-04 18:07:00,84.8,53.0,29.16,SW,225,2.8,9.0,33,0.00,,,0.00,Rainwise IP-100,2013-09-05 01:07:00,
2013-09-04 18:12:00,84.2,52.0,29.16,SSW,202,1.2,10.0,33,0.00,,,0.00,Rainwise IP-100,2013-09-05 01:12:00,
2013-09-04 18:17:00,83.7,53.0,29.16,South,180,6.8,7.0,34,0.00,,,0.00,Rainwise IP-100,2013-09-05 01:17:00,
2013-09-04 18:22:00,83.1,53.0,29.16,SSW,202,1.6,9.0,35,0.00,,,0.00,Rainwise IP-100,2013-09-05 01:22:00,
2013-09-04 18:27:00,82.7,53.0,29.16,SW,225,3.7,6.0,35,0.00,,,0.00,Rainwise IP-100,2013-09-05 01:27:00,
2013-09-04 18:32:00,82.9,53.0,29.16,South,180,1.6,6.0,36,0.00,,,0.00,Rainwise IP-100,2013-09-05 01:32:00,
2013-09-04 18:37:00,82.8,53.0,29.16,SSW,202,2.8,6.0,36,0.00,,,0.00,Rainwise IP-100,2013-09-05 01:37:00,
2013-09-04 18:42:00,81.9,53.0,29.16,SSW,202,2.8,5.0,36,0.00,,,0.00,Rainwise IP-100,2013-09-05 01:42:00,
2013-09-04 18:47:00,80.6,53.0,29.16,SSE,157,3.0,5.0,38,0.00,,,0.00,Rainwise IP-100,2013-09-05 01:47:00,
2013-09-04 18:52:00,79.6,53.0,29.16,SSW,202,4.2,10.0,39,0.00,,,0.00,Rainwise IP-100,2013-09-05 01:52:00,
2013-09-04 18:57:00,79.0,53.0,29.16,South,180,0.0,7.0,40,0.00,,,0.00,Rainwise IP-100,2013-09-05 01:57:00,
2013-09-04 19:02:00,78.3,53.0,29.16,SSW,202,2.6,5.0,41,0.00,,,0.00,Rainwise IP-100,2013-09-05 02:02:00,
2013-09-04 19:07:00,77.3,53.0,29.16,SSW,202,0.0,4.0,42,0.00,,,0.00,Rainwise IP-100,2013-09-05 02:07:00,
2013-09-04 19:12:00,76.8,53.0,29.16,SSW,202,0.0,1.0,43,0.00,,,0.00,Rainwise IP-100,2013-09-05 02:12:00,
2013-09-04 19:17:00,76.5,53.0,29.16,SSW,202,0.0,1.0,44,0.00,,,0.00,Rainwise IP-100,2013-09-05 02:17:00,
2013-09-04 19:22:00,75.7,53.0,29.16,SSW,202,0.0,1.0,45,0.00,,,0.00,Rainwise IP-100,2013-09-05 02:22:00,
2013-09-04 19:27:00,74.7,53.0,29.16,SSW,202,0.0,0.0,47,0.00,,,0.00,Rainwise IP-100,2013-09-05 02:27:00,
2013-09-04 19:32:00,74.0,53.0,29.16,SSW,202,0.0,0.0,48,0.00,,,0.00,Rainwise IP-100,2013-09-05 02:32:00,
2013-09-04 19:37:00,73.7,53.0,29.16,ESE,112,0.0,1.0,48,0.00,,,0.00,Rainwise IP-100,2013-09-05 02:37:00,
2013-09-04 19:42:00,73.4,53.0,29.16,ESE,112,0.0,1.0,49,0.00,,,0.00,Rainwise IP-100,2013-09-05 02:42:00,
2013-09-04 19:47:00,72.7,53.0,29.16,ENE,67,0.0,2.0,50,0.00,,,0.00,Rainwise IP-100,2013-09-05 02:47:00,
2013-09-04 19:52:00,72.1,53.0,29.17,ENE,67,0.0,0.0,51,0.00,,,0.00,Rainwise IP-100,2013-09-05 02:52:00,
2013-09-04 19:57:00,71.7,53.0,29.17,ENE,67,0.0,0.0,52,0.00,,,0.00,Rainwise IP-100,2013-09-05 02:57:00,
2013-09-04 20:02:00,71.1,53.0,29.17,ENE,67,0.0,0.0,53,0.00,,,0.00,Rainwise IP-100,2013-09-05 03:02:00,
2013-09-04 20:07:00,71.1,53.0,29.17,West,270,2.3,2.3,54,0.00,,,0.00,Rainwise IP-100,2013-09-05 03:07:00,
2013-09-04 20:12:00,70.9,53.0,29.17,WSW,247,1.6,3.0,54,0.00,,,0.00,Rainwise IP-100,2013-09-05 03:12:00,
2013-09-04 20:17:00,70.1,53.0,29.17,WSW,247,0.0,2.0,55,0.00,,,0.00,Rainwise IP-100,2013-09-05 03:17:00,
2013-09-04 20:22:00,69.8,53.0,29.18,WSW,247,0.0,1.0,55,0.00,,,0.00,Rainwise IP-100,2013-09-05 03:22:00,
2013-09-04 20:27:00,69.5,53.0,29.18,WSW,247,1.4,1.4,56,0.00,,,0.00,Rainwise IP-100,2013-09-05 03:27:00,
2013-09-04 20:32:00,69.0,53.0,29.18,WSW,247,0.0,1.0,57,0.00,,,0.00,Rainwise IP-100,2013-09-05 03:32:00,
2013-09-04 20:37:00,68.4,53.0,29.19,WSW,247,1.9,2.0,58,0.00,,,0.00,Rainwise IP-100,2013-09-05 03:37:00,
2013-09-04 20:42:00,68.1,53.0,29.19,WSW,247,2.3,2.3,59,0.00,,,0.00,Rainwise IP-100,2013-09-05 03:42:00,
2013-09-04 20:47:00,68.0,53.0,29.19,WSW,247,0.0,3.0,60,0.00,,,0.00,Rainwise IP-100,2013-09-05 03:47:00,
2013-09-04 20:52:00,68.1,53.0,29.19,WSW,247,0.0,1.0,60,0.00,,,0.00,Rainwise IP-100,2013-09-05 03:52:00,
2013-09-04 20:57:00,68.2,53.0,29.19,WSW,247,0.0,1.0,60,0.00,,,0.00,Rainwise IP-100,2013-09-05 03:57:00,
2013-09-04 21:01:00,68.2,53.0,29.19,WSW,247,0.0,1.0,60,0.00,,,0.00,Rainwise IP-100,2013-09-05 04:01:00,
2013-09-04 21:06:00,67.6,53.0,29.20,WSW,247,1.4,1.4,60,0.00,,,0.00,Rainwise IP-100,2013-09-05 04:06:00,
2013-09-04 21:11:00,67.2,53.0,29.20,WSW,247,0.0,2.0,60,0.00,,,0.00,Rainwise IP-100,2013-09-05 04:11:00,
2013-09-04 21:16:00,67.1,53.0,29.20,WSW,247,0.0,1.0,61,0.00,,,0.00,Rainwise IP-100,2013-09-05 04:16:00,
2013-09-04 21:21:00,67.0,53.0,29.20,WSW,247,0.0,0.0,61,0.00,,,0.00,Rainwise IP-100,2013-09-05 04:21:00,
2013-09-04 21:26:00,66.7,53.0,29.20,WSW,247,0.0,1.0,61,0.00,,,0.00,Rainwise IP-100,2013-09-05 04:26:00,
2013-09-04 21:31:00,66.0,52.0,29.21,WSW,247,0.0,0.0,61,0.00,,,0.00,Rainwise IP-100,2013-09-05 04:31:00,
2013-09-04 21:36:00,65.3,51.0,29.21,WSW,247,2.1,0.0,62,0.00,,,0.00,Rainwise IP-100,2013-09-05 04:36:00,
2013-09-04 21:41:00,64.8,51.0,29.21,WSW,247,1.6,3.0,63,0.00,,,0.00,Rainwise IP-100,2013-09-05 04:41:00,
2013-09-04 21:46:00,64.5,52.0,29.21,WSW,247,0.0,2.0,64,0.00,,,0.00,Rainwise IP-100,2013-09-05 04:46:00,
2013-09-04 21:51:00,64.2,51.0,29.21,WSW,247,0.0,2.0,64,0.00,,,0.00,Rainwise IP-100,2013-09-05 04:51:00,
2013-09-04 21:56:00,63.8,51.0,29.21,WSW,247,0.0,0.0,64,0.00,,,0.00,Rainwise IP-100,2013-09-05 04:56:00,
2013-09-04 22:01:00,63.4,51.0,29.20,WSW,247,0.0,1.0,65,0.00,,,0.00,Rainwise IP-100,2013-09-05 05:01:00,
2013-09-04 22:06:00,63.1,51.0,29.20,WSW,247,0.0,1.0,66,0.00,,,0.00,Rainwise IP-100,2013-09-05 05:06:00,
2013-09-04 22:11:00,62.7,51.0,29.21,WSW,247,0.0,1.0,67,0.00,,,0.00,Rainwise IP-100,2013-09-05 05:11:00,
2013-09-04 22:16:00,62.4,51.0,29.21,WSW,247,0.0,1.0,67,0.00,,,0.00,Rainwise IP-100,2013-09-05 05:16:00,
2013-09-04 22:21:00,62.1,51.0,29.21,WSW,247,0.0,0.0,67,0.00,,,0.00,Rainwise IP-100,2013-09-05 05:21:00,
2013-09-04 22:26:00,61.7,50.0,29.21,WSW,247,1.4,1.4,67,0.00,,,0.00,Rainwise IP-100,2013-09-05 05:26:00,
2013-09-04 22:31:00,61.2,50.0,29.21,WSW,247,1.2,2.0,68,0.00,,,0.00,Rainwise IP-100,2013-09-05 05:31:00,
2013-09-04 22:36:00,61.1,50.0,29.21,WSW,247,0.0,1.0,69,0.00,,,0.00,Rainwise IP-100,2013-09-05 05:36:00,
2013-09-04 22:41:00,61.2,51.0,29.21,WSW,247,0.0,0.0,70,0.00,,,0.00,Rainwise IP-100,2013-09-05 05:41:00,
2013-09-04 22:46:00,61.1,51.0,29.21,WSW,247,0.0,0.0,70,0.00,,,0.00,Rainwise IP-100,2013-09-05 05:46:00,
2013-09-04 22:51:00,60.8,50.0,29.22,WSW,247,1.2,1.2,70,0.00,,,0.00,Rainwise IP-100,2013-09-05 05:51:00,
2013-09-04 22:56:00,60.4,51.0,29.22,WSW,247,1.9,2.0,71,0.00,,,0.00,Rainwise IP-100,2013-09-05 05:56:00,
2013-09-04 23:01:00,60.1,50.0,29.22,WSW,247,0.0,2.0,71,0.00,,,0.00,Rainwise IP-100,2013-09-05 06:01:00,
2013-09-04 23:06:00,59.9,50.0,29.22,WSW,247,0.0,0.0,72,0.00,,,0.00,Rainwise IP-100,2013-09-05 06:06:00,
2013-09-04 23:11:00,59.7,50.0,29.22,WSW,247,0.0,0.0,72,0.00,,,0.00,Rainwise IP-100,2013-09-05 06:11:00,
2013-09-04 23:16:00,59.4,50.0,29.22,WSW,247,0.0,0.0,72,0.00,,,0.00,Rainwise IP-100,2013-09-05 06:16:00,
2013-09-04 23:21:00,59.2,50.0,29.22,WSW,247,1.6,1.6,72,0.00,,,0.00,Rainwise IP-100,2013-09-05 06:21:00,
2013-09-04 23:26:00,59.0,50.0,29.22,WSW,247,0.0,1.0,73,0.00,,,0.00,Rainwise IP-100,2013-09-05 06:26:00,
2013-09-04 23:31:00,58.8,50.0,29.22,WSW,247,1.9,2.0,73,0.00,,,0.00,Rainwise IP-100,2013-09-05 06:31:00,
2013-09-04 23:36:00,58.6,50.0,29.22,WSW,247,1.2,2.0,74,0.00,,,0.00,Rainwise IP-100,2013-09-05 06:36:00,
2013-09-04 23:41:00,58.6,50.0,29.21,WSW,247,0.0,1.0,74,0.00,,,0.00,Rainwise IP-100,2013-09-05 06:41:00,
2013-09-04 23:46:00,58.6,51.0,29.21,WSW,247,0.0,1.0,75,0.00,,,0.00,Rainwise IP-100,2013-09-05 06:46:00,
2013-09-04 23:51:00,58.5,51.0,29.22,WSW,247,1.9,2.0,75,0.00,,,0.00,Rainwise IP-100,2013-09-05 06:51:00,
2013-09-04 23:56:00,58.4,50.0,29.22,WSW,247,1.9,2.0,75,0.00,,,0.00,Rainwise IP-100,2013-09-05 06:56:00,